When you browse on this site, cookies collect data to enhance your experience and personalize the content and advertising you see.
Visit our Privacy Policy to learn more. By continuing to use the site, you agree to this use of cookies and data.
  • In Hungary
  • List of Countries
  • For 7 days
  • Water Temperature
  • Satellite Maps
  • Weather Map
  • News
  • Weather Widgets
  • user-avatar
    Login

    Hourly Weather Katras

    Today, 22 April, Monday

    Time Temperature Precipitation Wind Pressure Humidity
    00:00 +30°C° 0 mm 2 mps 737 mmHg 42%
    01:00 +29°C° 0 mm 2 mps 737 mmHg 45%
    02:00 +29°C° 0 mm 2 mps 737 mmHg 48%
    03:00 +28°C° 0 mm 2 mps 736 mmHg 51%
    04:00 +28°C° 0 mm 1 mps 736 mmHg 52%
    05:00 +27°C° 0 mm 1 mps 737 mmHg 53%
    06:00 +27°C° 0 mm 1 mps 737 mmHg 54%
    07:00 +29°C° 0 mm 1 mps 737 mmHg 47%
    08:00 +32°C° 0 mm 2 mps 738 mmHg 40%
    09:00 +35°C° 0 mm 2 mps 738 mmHg 33%
    10:00 +37°C° 0 mm 2 mps 738 mmHg 27%
    11:00 +39°C° 0 mm 1 mps 738 mmHg 22%
    12:00 +40°C° 0 mm 1 mps 738 mmHg 17%
    13:00 +40°C° 0 mm 1 mps 737 mmHg 17%
    14:00 +40°C° 0 mm 1 mps 736 mmHg 17%
    15:00 +39°C° 0 mm 1 mps 736 mmHg 17%
    16:00 +39°C° 0 mm 1 mps 736 mmHg 17%
    17:00 +39°C° 0 mm 1 mps 735 mmHg 17%
    18:00 +39°C° 0 mm 2 mps 735 mmHg 17%
    19:00 +38°C° 0 mm 2 mps 736 mmHg 18%
    20:00 +37°C° 0 mm 2 mps 736 mmHg 20%
    21:00 +36°C° 0 mm 2 mps 737 mmHg 22%
    22:00 +35°C° 0 mm 2 mps 737 mmHg 24%
    23:00 +34°C° 0 mm 2 mps 737 mmHg 27%

    Tomorrow, 23 April, Tuesday

    Time Temperature Precipitation Wind Pressure Humidity
    00:00 +34°C° 0 mm 2 mps 738 mmHg 29%
    01:00 +32°C° 0 mm 2 mps 737 mmHg 34%
    02:00 +31°C° 0 mm 2 mps 737 mmHg 39%
    03:00 +31°C° 0 mm 1 mps 737 mmHg 44%
    04:00 +30°C° 0 mm 1 mps 737 mmHg 49%
    05:00 +30°C° 0 mm 1 mps 737 mmHg 53%
    06:00 +30°C° 0 mm 1 mps 737 mmHg 57%
    07:00 +31°C° 0 mm 2 mps 738 mmHg 52%
    08:00 +34°C° 0 mm 3 mps 738 mmHg 46%
    09:00 +36°C° 0 mm 3 mps 739 mmHg 41%
    10:00 +38°C° 0 mm 3 mps 739 mmHg 34%
    11:00 +39°C° 0 mm 3 mps 739 mmHg 27%
    12:00 +42°C° 0 mm 3 mps 738 mmHg 20%
    13:00 +41°C° 0 mm 2 mps 738 mmHg 19%
    14:00 +42°C° 0 mm 2 mps 737 mmHg 17%
    15:00 +42°C° 0 mm 1 mps 737 mmHg 15%
    16:00 +41°C° 0 mm 1 mps 736 mmHg 16%
    17:00 +41°C° 0 mm 1 mps 736 mmHg 16%
    18:00 +40°C° 0 mm 1 mps 736 mmHg 16%
    19:00 +39°C° 0 mm 2 mps 737 mmHg 20%
    20:00 +38°C° 0 mm 3 mps 737 mmHg 23%
    21:00 +36°C° 0 mm 4 mps 738 mmHg 26%
    22:00 +35°C° 0 mm 4 mps 738 mmHg 33%
    23:00 +34°C° 0 mm 3 mps 738 mmHg 39%

    Day after tomorrow, 24 April, Wednesday

    Time Temperature Precipitation Wind Pressure Humidity
    00:00 +33°C° 0 mm 3 mps 739 mmHg 45%
    01:00 +33°C° 0 mm 3 mps 738 mmHg 49%
    02:00 +31°C° 0 mm 3 mps 738 mmHg 53%
    03:00 +30°C° 0 mm 3 mps 738 mmHg 57%
    04:00 +30°C° 0 mm 3 mps 738 mmHg 57%
    05:00 +30°C° 0 mm 3 mps 738 mmHg 56%
    06:00 +29°C° 0 mm 2 mps 738 mmHg 56%
    07:00 +31°C° 0 mm 3 mps 739 mmHg 49%
    08:00 +34°C° 0 mm 3 mps 739 mmHg 41%
    09:00 +37°C° 0 mm 4 mps 740 mmHg 34%
    10:00 +38°C° 0 mm 4 mps 740 mmHg 28%
    11:00 +41°C° 0 mm 4 mps 739 mmHg 23%
    12:00 +43°C° 0 mm 3 mps 739 mmHg 17%
    13:00 +43°C° 0 mm 3 mps 738 mmHg 16%
    14:00 +42°C° 0 mm 2 mps 737 mmHg 15%
    15:00 +42°C° 0 mm 1 mps 736 mmHg 14%
    16:00 +42°C° 0 mm 2 mps 736 mmHg 15%
    17:00 +42°C° 0 mm 2 mps 736 mmHg 15%
    18:00 +42°C° 0 mm 2 mps 736 mmHg 15%
    19:00 +40°C° 0 mm 3 mps 736 mmHg 18%
    20:00 +40°C° 0 mm 4 mps 737 mmHg 21%
    21:00 +38°C° 0 mm 4 mps 737 mmHg 23%
    22:00 +36°C° 0 mm 4 mps 737 mmHg 34%
    23:00 +35°C° 0 mm 5 mps 738 mmHg 45%

    25 April, Thursday

    Time Temperature Precipitation Wind Pressure Humidity
    00:00 +34°C° 0 mm 5 mps 738 mmHg 56%
    01:00 +33°C° 0 mm 4 mps 737 mmHg 58%
    02:00 +33°C° 0 mm 3 mps 737 mmHg 59%
    03:00 +31°C° 0 mm 2 mps 737 mmHg 61%
    04:00 +31°C° 0 mm 2 mps 737 mmHg 62%
    05:00 +31°C° 0 mm 2 mps 737 mmHg 64%
    06:00 +30°C° 0 mm 2 mps 737 mmHg 65%
    07:00 +33°C° 0 mm 3 mps 738 mmHg 54%
    08:00 +36°C° 0 mm 3 mps 739 mmHg 44%
    09:00 +38°C° 0 mm 4 mps 739 mmHg 33%
    10:00 +41°C° 0 mm 4 mps 739 mmHg 28%
    11:00 +43°C° 0 mm 5 mps 738 mmHg 23%
    12:00 +45°C° 0 mm 5 mps 738 mmHg 19%
    13:00 +46°C° 0 mm 5 mps 737 mmHg 17%
    14:00 +47°C° 0 mm 4 mps 736 mmHg 15%
    15:00 +47°C° 0 mm 4 mps 735 mmHg 14%
    16:00 +46°C° 0 mm 3 mps 735 mmHg 14%
    17:00 +45°C° 0 mm 3 mps 735 mmHg 14%
    18:00 +45°C° 0 mm 3 mps 735 mmHg 14%
    19:00 +43°C° 0 mm 4 mps 735 mmHg 20%
    20:00 +41°C° 0 mm 5 mps 736 mmHg 27%
    21:00 +39°C° 0 mm 7 mps 736 mmHg 33%
    22:00 +38°C° 0 mm 6 mps 736 mmHg 38%
    23:00 +36°C° 0 mm 6 mps 737 mmHg 43%

    26 April, Friday

    Time Temperature Precipitation Wind Pressure Humidity
    00:00 +35°C° 0 mm 5 mps 737 mmHg 47%
    01:00 +35°C° 0 mm 5 mps 736 mmHg 47%
    02:00 +34°C° 0 mm 4 mps 736 mmHg 47%
    03:00 +34°C° 0 mm 3 mps 735 mmHg 46%
    04:00 +33°C° 0 mm 3 mps 735 mmHg 46%
    05:00 +33°C° 0 mm 3 mps 736 mmHg 46%
    06:00 +31°C° 0 mm 3 mps 736 mmHg 46%
    07:00 +34°C° 0 mm 3 mps 736 mmHg 40%
    08:00 +36°C° 0 mm 3 mps 737 mmHg 35%
    09:00 +38°C° 0 mm 2 mps 737 mmHg 29%
    10:00 +40°C° 0 mm 2 mps 737 mmHg 24%
    11:00 +43°C° 0 mm 2 mps 737 mmHg 19%
    12:00 +46°C° 0 mm 2 mps 736 mmHg 14%
    13:00 +46°C° 0 mm 3 mps 736 mmHg 13%
    14:00 +47°C° 0 mm 3 mps 735 mmHg 12%
    15:00 +49°C° 0 mm 4 mps 734 mmHg 11%
    16:00 +48°C° 0 mm 4 mps 734 mmHg 11%
    17:00 +47°C° 0 mm 3 mps 734 mmHg 12%
    18:00 +46°C° 0 mm 3 mps 734 mmHg 13%
    19:00 +45°C° 0 mm 3 mps 735 mmHg 14%
    20:00 +42°C° 0 mm 2 mps 735 mmHg 16%
    21:00 +41°C° 0 mm 2 mps 736 mmHg 17%
    22:00 +40°C° 0 mm 2 mps 736 mmHg 23%
    23:00 +38°C° 0 mm 3 mps 736 mmHg 29%

    27 April, Saturday

    Time Temperature Precipitation Wind Pressure Humidity
    00:00 +37°C° 0 mm 3 mps 736 mmHg 35%
    01:00 +36°C° 0 mm 3 mps 736 mmHg 37%
    02:00 +36°C° 0 mm 3 mps 735 mmHg 39%
    03:00 +35°C° 0 mm 2 mps 735 mmHg 41%
    04:00 +35°C° 0 mm 2 mps 735 mmHg 42%
    05:00 +34°C° 0 mm 2 mps 735 mmHg 43%
    06:00 +34°C° 0 mm 3 mps 735 mmHg 44%
    07:00 +36°C° 0 mm 3 mps 736 mmHg 36%
    08:00 +40°C° 0 mm 4 mps 736 mmHg 29%
    09:00 +42°C° 0 mm 4 mps 737 mmHg 21%
    10:00 +44°C° 0 mm 4 mps 736 mmHg 17%
    11:00 +47°C° 0 mm 4 mps 736 mmHg 13%
    12:00 +49°C° 0 mm 4 mps 736 mmHg 9%
    13:00 +50°C° 0 mm 5 mps 735 mmHg 9%
    14:00 +50°C° 0 mm 5 mps 734 mmHg 8%
    15:00 +52°C° 0 mm 5 mps 733 mmHg 7%
    16:00 +50°C° 0 mm 5 mps 733 mmHg 8%
    17:00 +49°C° 0 mm 5 mps 733 mmHg 8%
    18:00 +48°C° 0 mm 4 mps 733 mmHg 8%
    19:00 +46°C° 0 mm 3 mps 733 mmHg 9%
    20:00 +44°C° 0 mm 3 mps 734 mmHg 10%
    21:00 +42°C° 0 mm 2 mps 735 mmHg 12%
    22:00 +41°C° 0 mm 2 mps 735 mmHg 14%
    23:00 +39°C° 0 mm 1 mps 734 mmHg 17%
    Show more